Location: Hall+in+Tirol
(47.2830°N, 11.5170°E)
Time: 06:25:25
(UTC+02:00)

Daily predictions for brighter satellites

Satellite Brightness Start Highest point End
(mag) Time Altitude Azimuth Time Altitude Azimuth Time Altitude Azimuth
Aureole 2 Rocket 3.6 18:36:00 10° N 18:39:30 30° ENE 18:43:07 10° ESE
Cosmos 2084 3.8 18:38:24 10° NNW 18:41:58 37° NE 18:45:33 10° ESE
Cosmos 2360 Rocket 2.8 18:37:50 10° NNW 18:43:28 65° WSW 18:49:04 10° SSE
ATLAS 5 CENTAUR R/B 4.1 18:41:00 10° NW 18:43:57 15° N 18:47:03 10° NNE
Gbstr 26 Del rocket 3.6 18:39:59 10° WNW 18:44:38 81° SSW 18:50:25 10° ESE
Cosmos 1484 Rocket 2.8 18:41:02 10° S 18:44:45 81° WSW 18:48:29 10° NNW
GENESIS II 4.3 18:40:55 10° SW 18:44:54 90° SE 18:48:53 10° NE
Cosmos 2098 Rocket 4.5 18:41:58 10° SE 18:46:21 30° E 18:51:38 10° NNE
Cosmos 2221 3.2 18:44:02 10° SSE 18:47:57 34° E 18:51:54 10° NNE
Cosmos 921 Rocket 3.1 18:44:03 10° NNW 18:48:32 87° WSW 18:52:54 10° SSE
CZ-2C R/B 3.7 18:44:04 10° NNE 18:48:33 63° ESE 18:52:57 10° S
Cosmos 1703 3.3 18:45:13 10° N 18:49:10 85° W 18:53:04 10° S
Cosmos 158 Rocket 4.3 18:44:33 10° S 18:49:22 44° ESE 18:54:21 10° NNE
Aureole 1 Rocket 4.4 18:45:30 10° SW 18:51:04 49° WNW 18:55:19 10° NNE
Cosmos 1908 3.6 18:48:40 10° SSE 18:52:22 44° E 18:56:06 10° NNE
Cosmos 1743 Rocket 4.2 18:49:47 10° NNW 18:54:09 64° W 18:58:31 10° S
GRACE-2 4.3 18:52:30 10° SSE 18:54:51 34° E 18:57:14 10° NNE
SKYMED 2 4.1 18:50:55 10° NNE 18:54:58 37° E 18:58:59 10° SSE
NOSS 0 Rocket 4.3 18:50:46 10° NNW 18:56:41 44° NE 19:02:32 10° SE
APEX 3.0 18:54:33 10° S 18:57:20 37° ESE 18:59:56 10° NE
Lacrosse 5 rocket 3.2 18:54:14 10° WNW 18:57:47 23° N 19:01:11 10° NE
FENGYUN 3A 4.1 18:53:29 10° SE 18:58:30 40° ENE 19:03:32 10° N
Cosmos 1048 Rocket 4.3 18:54:51 10° S 18:59:42 45° ESE 19:04:35 10° NNE
SJ-6B 4.5 18:58:18 11° E 18:59:46 14° ENE 19:01:42 10° NNE
COSMOS 2428 2.7 18:54:25 10° NNW 19:00:09 82° ENE 19:05:51 10° SSE
GP-B 3.1 18:56:13 10° N 19:00:41 87° E 19:05:07 10° S
GRACE-1 3.9 18:58:43 10° SSE 19:01:13 46° E 19:03:44 10° N
Cosmos 2333 Rocket 2.5 18:57:16 10° NNW 19:02:51 50° NE 19:08:26 10° SE
Cosmos 1420 Rocket 4.3 18:57:37 10° NNW 19:02:57 77° WSW 19:08:13 10° SSE
H-2A R/B 4.2 19:00:25 10° ESE 19:03:13 19° ENE 19:06:03 10° NNE
Cosmos 2219 3.6 19:00:41 10° S 19:06:06 45° ESE 19:11:32 10° NE
Cosmos 1842 Rocket 3.9 19:02:28 10° SSW 19:06:55 71° W 19:11:22 10° N
ALOS 2.6 19:03:14 10° SE 19:07:40 44° ENE 19:12:06 10° N
Cosmos 2297 Rocket 3.6 19:08:34 10° SE 19:11:50 16° E 19:13:18 14° E
Cosmos 1300 3.7 19:11:23 10° SE 19:14:33 25° E 19:17:45 10° NNE
MOS 1 4.3 19:11:23 10° SSE 19:17:04 90° WSW 19:22:49 10° NNW
NOAA 12 4.1 19:18:30 10° SSE 19:23:46 69° ENE 19:29:05 10° N
Thor Agena Rocket 4.1 19:23:17 10° NNE 19:27:51 33° E 19:32:22 10° SSE
CZ-4C R/B 2.2 19:23:40 10° SSW 19:28:51 64° SE 19:34:50 10° NE
Cosmos 1331 Rocket 4.1 19:24:28 10° NNW 19:29:37 52° ENE 19:34:40 10° SE
Cosmos 2219 Rocket 2.1 19:24:02 10° NNW 19:29:40 87° ENE 19:35:18 10° SSE
METEOR-M 4.5 19:26:56 10° S 19:32:15 71° WSW 19:37:37 10° NNW
SL-8 R/B 3.7 19:28:42 10° W 19:33:32 83° N 19:36:27 24° ENE
Cosmos 44 3.0 19:29:49 10° SW 19:34:09 83° NW 19:38:15 12° NE
USA 234 4.1 19:29:55 15° ENE 19:34:46 38° N 19:40:43 10° WNW
Sich 1 3.0 19:31:07 10° N 19:35:28 61° ENE 19:39:50 10° SSE
ERS-2 4.4 19:32:27 10° SSW 19:35:40 28° W 19:38:55 10° NW
Cosmos 1535 Rocket 4.4 19:29:53 10° S 19:35:54 63° E 19:41:56 10° NNE
FengYun 1-2 T 4.3 19:34:50 10° SE 19:40:09 53° ENE 19:45:29 10° N
Cosmos 1726 1.9 19:37:46 10° S 19:41:27 80° E 19:45:09 10° NNE
BREEZE M DEB (TANK) 1.8 19:37:40 10° WNW 19:42:30 87° SSW 19:43:17 42° ESE
COSMO-SKYMED 1 2.8 19:38:45 10° N 19:43:07 72° WNW 19:47:26 10° SSW
MOS 1-B Rocket 4.5 19:41:07 19° ESE 19:44:47 38° ENE 19:50:39 10° N
BREEZE-M R/B 4.0 19:44:12 10° S 19:45:46 20° SSE 19:45:46 20° SSE
Meteor 2-2 Rocket 4.4 19:42:18 10° SSE 19:47:39 45° E 19:53:00 10° NNE
EO 1 Del DPAF 4.3 19:45:28 10° N 19:49:10 47° WNW 19:52:52 10° SW
Resurs 01 Rocket 2.9 19:50:57 24° NE 19:50:57 24° NE 19:53:47 10° N
Abrixas 3.4 19:50:18 10° WSW 19:51:33 29° SW 19:51:33 29° SW
Cosmos 1805 Rocket 4.1 19:48:56 10° NNW 19:53:16 59° W 19:57:36 10° S
DMSP B5D1-3 4.4 19:48:25 10° NNE 19:53:35 84° ESE 19:58:44 10° SSW
Cosmos 1269 Rocket 4.3 19:51:30 10° SSW 19:56:46 72° WNW 20:02:05 10° NNE
HJ-1C 4.0 19:57:29 40° NE 19:57:29 40° NE 20:00:08 10° N
BREEZE-M DEB (TANK) 1.9 19:56:45 10° WSW 19:58:18 48° SW 19:58:18 48° SW
Cosmos 1302 Rocket 4.1 19:54:25 10° NNW 19:59:34 55° ENE 20:01:45 32° SE
Iridium 4 Rocket 4.2 19:56:21 10° SSW 20:02:02 65° W 20:07:57 10° N
Cosmos 1934 Rocket 3.9 19:55:59 10° S 20:02:21 83° E 20:08:45 10° N
Cosmos 1666 Rocket 3.7 19:58:30 10° NNW 20:02:51 73° W 20:07:08 10° S
CSL-04 DEB 4.4 20:02:47 51° E 20:03:16 55° ENE 20:07:12 10° N
In-Cosmos 22 Rocket 4.2 19:59:29 10° N 20:05:17 88° ENE 20:11:07 10° S
Cosmos 2228 Rocket 4.4 20:01:12 10° SSE 20:08:57 16° NNE 20:09:53 10° NNE
Cosmos 1821 Rocket 4.2 19:59:25 10° SSW 20:05:36 73° W 20:11:56 10° N
Cosmos 1633 Rocket 3.1 20:02:23 10° NNW 20:06:50 80° W 20:11:15 10° S
Cosmos 2237 Rocket 2.2 20:02:22 10° NNW 20:08:07 87° WSW 20:12:38 17° SSE
Cosmos 1328 Rocket 3.5 20:04:42 10° S 20:09:01 57° E 20:13:19 10° NNE
Cosmos 494 Rocket 3.8 20:05:37 10° S 20:10:40 67° ESE 20:14:26 18° NNE
Cosmos 1933 Rocket 3.7 20:06:26 10° N 20:10:19 49° ENE 20:10:19 49° ENE
Spot 2 Rocket 4.1 20:11:39 37° NE 20:11:39 37° NE 20:15:53 10° N
Abrixas rocket 2.6 20:10:53 10° WNW 20:13:50 58° SW 20:13:50 58° SW
Cosmos 44 Rocket 4.2 20:10:06 10° WSW 20:14:36 44° NW 20:18:02 16° NNE
Cosmos 2227 Rocket 2.1 20:12:26 10° S 20:17:59 61° ESE 20:20:26 33° NE
SL-16 R/B 2.3 20:15:54 10° NNW 20:21:31 56° ENE 20:22:17 51° E
FREGAT/IRIS 4.3 20:28:39 34° W 20:28:39 34° W 20:31:08 10° NNW
USA 32 3.9 20:23:19 10° N 20:28:37 84° E 20:31:23 29° S
ATLAS 5 CENTAUR R/B 3.7 20:26:23 10° NNW 20:30:43 22° NNE 20:31:02 22° NNE
Cosmos 1980 4.3 20:27:12 10° NW 20:32:42 54° WSW 20:37:11 15° S
SJ-6B 3.2 20:33:58 56° WSW 20:34:00 56° WSW 20:37:43 10° NNW
H-2A R/B 4.0 20:34:38 18° SSW 20:37:12 41° W 20:40:58 10° NNW
Lacrosse 5 rocket 3.0 20:34:21 10° NW 20:37:18 26° N 20:37:18 26° N
Cosmos 1605 Rocket 4.0 20:34:04 10° SSW 20:40:09 76° W 20:46:17 10° N
Meteor 2-3 Rocket 3.7 20:38:27 10° NNW 20:44:15 82° W 20:46:18 42° S
Envisat 3.2 20:47:11 61° N 20:47:11 61° N 20:51:26 10° N
Cosmos 1153 Rocket 4.3 20:40:25 10° S 20:46:35 85° E 20:52:51 10° N
Cosmos 2333 Rocket 4.0 20:41:56 10° NW 20:46:53 30° WSW 20:51:48 10° SSW
Cosmos 2251 Rocket 3.6 20:46:06 10° SSW 20:51:25 78° WNW 20:52:18 61° N
Cosmos 2297 Rocket 2.1 20:49:25 10° SSW 20:55:05 86° WNW 20:55:13 84° NNW
Meteor 2-17 Rocket 4.3 20:51:31 10° S 20:57:37 88° WNW 21:03:46 10° N
Cosmos 2082 3.8 21:00:39 10° SSW 21:06:15 73° WNW 21:06:15 73° WNW
USA 234 3.5 21:17:16 55° NNE 21:17:16 55° NNE 21:23:27 10° NW
CZ-4C R/B 3.7 21:12:48 10° W 21:17:50 34° NNW 21:20:11 26° N
Resurs 01 Rocket 3.7 21:28:32 24° NW 21:28:32 24° NW 21:30:37 10° NNW
Cosmos 2227 Rocket 4.0 21:57:43 10° WSW 22:02:21 27° NW 22:02:21 27° NW
SL-16 R/B 4.1 22:00:39 10° NW 22:04:12 24° W 22:04:12 24° W
ATLAS 5 CENTAUR R/B 4.3 22:10:41 10° NW 22:12:35 22° NNW 22:12:35 22° NNW
